Wind_Speed
12 10 10 9 10 10 12 14 18 18 18 17 16 15 16 18 19 23 26 30 35 37 39 37 34 31 28 25 25 24 19 13 13 13 15 10 8 3 23 26 27 32 36 40 33
12 11 10 10 10 10 11 12 15 18 19 17 16 14 14 16 16 18 22 25 29 34 37 40 38 35 31 28 26 25 24 20 18 15 12 11 6 13 22 23 26 28 32 38 33
12 12 11 10 11 12 11 12 14 16 18 18 18 16 15 15 15 16 19 20 23 29 32 37 40 39 36 31 28 26 24 21 19 17 14 10 12 8 21 20 22 25 28 34 28
13 12 12 11 11 13 13 13 14 15 17 19 20 19 18 17 17 18 19 19 20 24 28 28 37 39 40 37 33 30 25 23 19 20 17 7 12 20 23 21 22 22 27 30 25
15 14 13 12 11 11 13 15 16 17 18 18 20 21 22 22 21 20 20 20 20 22 24 19 27 34 39 40 38 34 29 25 24 22 21 20 19 19 20 18 22 22 27 27 29
16 15 15 14 13 11 12 14 16 18 20 21 21 21 23 24 24 23 21 21 23 23 23 20 23 25 33 37 38 38 33 28 28 27 21 14 15 21 21 22 22 23 29 23 28
17 16 16 15 15 15 14 15 17 18 19 21 23 24 24 24 25 25 24 24 25 25 24 24 22 23 26 30 35 37 37 33 30 29 31 26 27 25 25 25 22 26 28 23 24
17 18 18 18 17 17 17 18 18 19 20 21 21 23 25 25 26 27 27 27 29 29 28 28 26 24 24 24 27 31 35 38 37 35 35 31 23 29 30 24 23 25 25 21 21
18 18 20 19 20 19 20 21 21 21 21 22 23 23 23 24 24 23 25 28 30 31 32 32 31 26 24 24 25 26 28 35 38 39 37 33 29 30 30 23 22 25 22 18 20
18 20 21 21 21 21 22 24 24 24 23 23 25 25 25 24 24 24 23 24 27 31 36 36 34 31 29 29 26 25 26 28 35 41 42 37 35 30 28 25 24 23 21 17 16
18 20 23 23 22 24 23 23 25 28 27 26 27 29 28 27 26 27 27 27 26 29 31 35 38 36 38 35 30 27 26 25 27 32 39 43 39 32 27 24 22 20 18 20 15
18 19 21 22 20 22 23 26 27 26 27 28 29 31 30 30 29 28 28 28 29 30 31 33 35 40 41 38 36 33 31 27 26 27 30 35 41 37 32 26 24 20 18 16 15
7 9 12 13 12 14 16 17 19 20 22 26 28 28 28 26 26 27 27 27 27 29 31 33 35 37 39 41 40 39 37 34 31 28 27 29 33 36 35 31 28 23 21 16 14
12 13 14 17 17 16 15 16 17 18 19 22 21 21 21 19 18 19 22 24 27 29 31 32 33 35 38 39 43 43 41 40 36 32 28 27 30 33 36 35 31 29 26 20 15
15 17 18 20 22 23 23 23 21 20 19 21 21 22 22 19 19 19 18 20 24 27 29 30 33 35 36 38 39 42 43 43 41 38 35 29 29 30 35 39 37 31 27 21 16
19 17 21 23 23 25 24 26 27 28 28 27 25 24 24 23 22 21 20 21 24 24 25 28 29 32 33 35 37 38 42 43 43 42 39 36 33 29 29 36 37 35 30 22 18
24 24 24 25 26 27 27 30 30 31 28 30 30 29 30 27 25 24 22 23 23 21 20 24 27 29 30 31 33 35 38 41 44 44 43 40 36 32 31 30 33 35 33 27 22
31 32 32 30 32 31 30 30 32 31 30 27 29 32 32 32 28 25 22 22 20 16 17 19 23 25 26 29 31 33 37 39 41 44 44 42 39 36 35 32 29 35 32 28 25
34 34 35 37 36 37 32 35 37 32 28 30 28 30 32 32 31 28 23 21 19 18 17 18 20 23 26 28 30 32 34 36 38 39 42 42 41 38 37 36 34 35 37 32 30
44 43 47 44 43 39 38 36 37 32 32 28 30 32 33 33 30 30 27 23 20 19 19 20 20 22 24 27 30 30 32 34 34 35 36 38 41 41 41 38 38 36 40 39 35
55 54 52 50 45 43 43 43 38 36 32 34 28 31 33 34 32 29 29 24 21 19 19 21 19 20 23 25 27 27 28 28 29 31 33 36 39 40 42 43 39 40 39 41 39
60 56 55 53 48 45 43 43 43 38 34 34 33 31 32 32 34 30 28 27 22 21 18 19 19 19 20 21 22 22 23 24 26 27 29 33 37 39 40 43 45 43 44 42 42
58 58 55 55 48 45 44 45 46 43 42 38 38 36 34 34 36 34 28 29 24 22 19 17 20 20 19 19 20 22 23 24 25 25 26 29 32 36 39 42 46 48 48 47 45
57 57 53 53 50 48 48 48 47 50 47 44 40 39 39 40 39 34 32 28 28 24 24 20 20 25 24 20 19 18 20 21 25 27 27 27 28 30 32 37 44 47 49 52 51
60 60 57 52 55 55 54 53 55 53 51 46 45 41 43 42 41 42 34 35 30 28 25 23 21 24 29 28 26 22 20 21 22 24 26 27 28 28 31 32 37 44 50 52 55
60 60 62 59 60 60 62 61 63 56 53 52 49 46 47 47 45 43 41 37 34 33 29 26 24 23 29 32 32 30 26 27 26 26 28 30 31 30 29 31 33 37 46 51 54
58 62 63 61 62 62 62 63 57 52 49 55 51 49 49 48 47 45 44 41 38 34 34 30 27 26 24 32 32 33 29 28 28 29 31 32 29 32 33 32 31 35 38 46 53
Wind_Direction
285 280 264 256 250 242 234 227 218 219 219 221 225 232 234 235 232 236 234 233 233 231 225 227 227 228 231 234 234 238 242 240 248 266 265 277 331 352 292 317 332 349 354 1 10
282 276 267 252 247 242 234 229 222 221 224 226 223 229 234 236 232 235 236 238 237 232 231 229 228 230 230 233 233 237 240 242 250 245 258 266 258 249 303 323 335 343 356 359 9
272 269 267 254 247 242 237 236 232 226 225 231 230 235 241 241 235 235 238 237 240 239 233 235 231 231 231 232 233 234 233 240 253 234 229 257 277 255 295 315 331 344 352 356 10
268 264 261 258 249 246 240 237 236 233 233 233 235 237 238 239 237 238 239 240 240 242 240 237 238 235 232 231 233 233 231 233 234 235 234 239 261 257 289 307 325 340 347 354 6
266 263 261 263 257 254 248 243 242 241 242 239 237 237 240 243 239 240 240 242 246 244 242 231 240 240 235 233 233 231 231 227 229 224 228 233 264 275 287 301 320 332 343 350 3
260 261 260 264 267 262 257 254 250 248 247 248 249 248 246 248 248 243 242 245 248 249 246 237 238 240 241 237 235 232 228 228 227 223 216 223 227 264 276 295 314 323 332 344 353
255 259 262 264 266 265 264 263 260 259 258 258 258 260 257 253 252 247 247 248 250 250 251 249 238 238 240 240 242 238 230 228 226 226 225 238 253 265 275 292 301 312 314 334 350
256 259 264 264 265 267 268 264 263 265 265 265 263 262 262 258 255 252 248 246 248 251 250 251 245 242 241 239 237 238 236 229 226 224 231 240 233 259 270 280 291 308 322 326 349
262 265 265 268 270 269 270 271 271 271 272 271 267 265 266 265 264 260 255 250 247 247 247 249 250 246 243 240 236 235 232 231 228 228 234 238 237 251 260 270 283 300 314 323 350
265 266 269 269 271 273 272 273 275 275 273 271 272 272 271 272 272 270 263 256 251 248 247 246 248 245 241 238 237 236 234 230 230 232 232 236 241 246 249 263 275 279 303 321 343
272 272 272 274 272 271 273 275 274 274 273 274 275 275 275 276 272 270 266 262 257 252 249 248 245 241 238 239 238 238 236 233 230 228 232 235 239 242 243 253 261 268 293 313 332
276 279 281 282 283 279 277 277 281 276 272 275 276 278 278 278 277 273 269 263 256 254 250 247 244 242 240 239 237 236 235 231 228 231 226 229 233 238 241 245 245 260 282 306 316
300 303 303 305 308 300 298 295 291 287 279 278 279 280 281 281 278 277 275 270 262 255 250 246 244 242 240 236 234 232 234 233 228 226 227 229 229 229 236 240 241 255 267 286 301
292 293 294 297 296 299 300 297 292 289 286 285 285 284 286 283 282 285 281 275 268 258 252 247 244 242 240 238 235 231 231 232 232 230 227 224 229 227 224 231 237 249 260 268 287
298 297 297 295 293 294 291 289 287 284 283 287 289 288 288 284 285 292 288 284 273 265 255 249 243 241 238 238 237 234 230 231 232 232 232 228 227 229 227 226 232 240 251 256 262
291 300 301 287 290 295 295 289 286 282 280 281 282 285 285 280 283 288 291 291 283 269 259 250 244 241 240 237 236 233 230 230 231 231 233 232 228 228 229 228 227 230 237 244 247
289 293 297 288 278 297 297 294 287 281 282 279 277 278 280 280 281 279 286 297 286 273 262 246 239 237 236 234 232 231 228 228 230 230 230 231 232 229 229 229 226 226 229 233 235
289 291 291 288 288 285 290 287 284 288 285 283 281 276 274 274 275 278 277 291 285 277 264 247 241 237 237 234 230 230 228 228 230 230 230 228 231 230 229 229 231 220 222 226 230
295 288 287 288 287 288 283 280 280 286 290 286 286 285 274 272 269 272 276 276 278 278 271 250 245 240 235 230 230 230 230 228 228 230 232 230 228 229 229 228 230 227 218 218 225
295 293 295 292 292 284 279 275 276 284 281 281 284 284 281 270 272 267 268 269 274 274 274 248 245 241 239 232 228 229 231 230 228 227 228 231 230 229 229 228 225 228 220 217 220
294 294 290 286 284 280 266 268 268 274 282 276 279 277 275 270 268 268 264 264 266 273 277 247 240 240 234 234 231 227 228 231 230 227 226 229 229 229 229 229 227 224 226 222 219
287 286 283 282 284 273 266 265 263 263 267 277 274 274 272 264 265 267 259 259 258 265 276 250 238 232 228 226 227 230 228 226 224 224 223 227 230 227 227 228 227 227 224 223 222
279 284 283 276 275 273 268 265 265 263 267 261 268 267 264 260 266 270 264 251 254 258 263 258 233 229 219 222 225 229 229 230 229 228 225 224 227 226 225 225 226 226 225 225 221
279 279 278 273 271 271 265 264 261 264 266 257 252 261 262 259 262 265 261 255 247 252 255 255 238 229 229 222 220 225 227 224 224 227 229 230 230 232 229 224 224 224 226 225 225
273 276 275 267 268 268 267 263 264 268 264 255 248 246 255 258 258 262 257 257 252 244 250 251 245 233 231 230 228 227 230 233 227 225 227 225 227 226 227 227 224 222 222 225 225
269 270 272 270 269 267 271 271 270 267 258 249 247 248 245 252 254 256 254 255 252 246 242 243 249 242 234 233 234 237 232 232 234 234 234 233 229 227 232 228 228 227 222 223 225
274 271 273 270 270 269 272 273 272 265 253 247 244 247 241 245 250 253 251 246 249 244 241 241 239 241 243 238 235 238 239 235 237 240 243 245 236 235 229 233 232 231 230 224 223
Height
10916 10916 10916 10916 10916 10916 10916 10917 10918 10919 10920 10921 10922 10923 10924 10924 10927 10928 10931 10932 10935 10937 10942 10945 10950 10953 10956 10959 10961 10964 10965 10967 10968 10968 10968 10968 10966 10964 10959 10958 10957 10952 10947 10942 10936
10914 10913 10913 10913 10914 10914 10915 10915 10916 10917 10918 10919 10920 10921 10921 10922 10924 10925 10927 10928 10930 10932 10936 10940 10944 10948 10952 10954 10957 10960 10962 10964 10966 10966 10967 10966 10966 10964 10960 10959 10957 10953 10949 10946 10939
10911 10911 10911 10911 10911 10912 10912 10913 10913 10915 10916 10916 10918 10919 10919 10920 10921 10922 10922 10924 10925 10927 10932 10933 10937 10941 10946 10949 10952 10955 10958 10961 10962 10964 10965 10964 10964 10964 10959 10959 10957 10954 10951 10948 10942
10907 10908 10908 10909 10909 10910 10910 10910 10911 10912 10913 10913 10914 10915 10915 10916 10918 10918 10919 10920 10921 10922 10926 10929 10930 10934 10938 10944 10947 10950 10954 10957 10959 10961 10964 10964 10962 10962 10959 10958 10957 10956 10952 10950 10945
10904 10905 10905 10905 10906 10907 10908 10908 10908 10909 10909 10910 10911 10912 10912 10912 10914 10915 10916 10917 10917 10918 10921 10925 10925 10927 10932 10937 10941 10945 10949 10953 10956 10959 10961 10962 10961 10959 10958 10957 10957 10957 10954 10951 10946
10901 10901 10902 10902 10904 10904 10904 10904 10904 10905 10905 10906 10906 10908 10908 10909 10910 10912 10913 10913 10913 10914 10916 10921 10922 10923 10926 10931 10934 10939 10945 10949 10952 10955 10957 10960 10959 10956 10956 10957 10957 10956 10954 10952 10948
10897 10898 10898 10899 10900 10901 10901 10901 10901 10901 10902 10902 10903 10903 10904 10904 10904 10907 10909 10909 10909 10910 10911 10914 10918 10919 10921 10926 10928 10932 10939 10944 10948 10950 10954 10954 10956 10956 10955 10955 10955 10955 10955 10951 10948
10894 10895 10895 10897 10897 10897 10897 10897 10897 10897 10897 10897 10898 10898 10898 10898 10899 10901 10903 10904 10904 10905 10907 10907 10912 10914 10918 10921 10924 10927 10931 10937 10940 10945 10947 10950 10953 10953 10953 10954 10954 10953 10954 10950 10949
10891 10891 10892 10893 10894 10894 10893 10893 10893 10893 10893 10892 10892 10892 10893 10893 10894 10896 10897 10898 10899 10899 10900 10901 10904 10910 10913 10915 10917 10921 10925 10930 10934 10938 10941 10946 10947 10948 10949 10952 10952 10951 10952 10950 10948
10887 10887 10887 10889 10890 10890 10890 10889 10888 10888 10888 10887 10886 10887 10887 10888 10889 10890 10891 10891 10892 10892 10893 10895 10898 10903 10905 10907 10911 10915 10920 10923 10927 10932 10935 10940 10941 10945 10948 10949 10949 10950 10949 10948 10947
10883 10883 10883 10883 10885 10884 10884 10884 10883 10882 10882 10881 10880 10880 10881 10882 10883 10883 10883 10884 10885 10885 10885 10887 10891 10894 10896 10900 10905 10910 10913 10917 10920 10924 10928 10933 10936 10941 10944 10946 10948 10948 10947 10946 10945
10878 10878 10878 10877 10879 10879 10878 10878 10878 10877 10876 10875 10874 10874 10874 10874 10874 10875 10875 10876 10877 10877 10878 10879 10881 10883 10888 10894 10899 10903 10906 10911 10914 10917 10921 10924 10929 10934 10939 10942 10944 10946 10946 10945 10945
10876 10875 10875 10874 10874 10874 10873 10873 10872 10871 10871 10869 10868 10868 10867 10867 10866 10866 10867 10867 10868 10869 10870 10870 10872 10876 10879 10884 10890 10894 10898 10902 10907 10911 10915 10919 10922 10928 10933 10937 10941 10942 10944 10944 10944
10873 10872 10872 10870 10870 10870 10869 10868 10867 10866 10865 10863 10862 10862 10861 10861 10861 10860 10860 10859 10859 10859 10860 10862 10865 10867 10870 10875 10879 10884 10891 10896 10900 10905 10910 10913 10916 10921 10926 10930 10935 10938 10940 10942 10943
10870 10868 10868 10866 10865 10864 10864 10863 10862 10861 10861 10859 10858 10856 10856 10856 10856 10856 10855 10853 10851 10850 10851 10854 10855 10858 10862 10866 10870 10876 10882 10887 10893 10898 10902 10908 10911 10915 10918 10923 10928 10933 10936 10938 10941
10864 10864 10862 10861 10859 10858 10857 10856 10856 10856 10855 10854 10853 10851 10850 10850 10851 10850 10850 10848 10845 10843 10844 10845 10848 10850 10853 10858 10862 10866 10872 10878 10884 10889 10894 10900 10904 10909 10912 10916 10922 10928 10932 10935 10937
10858 10857 10856 10853 10853 10851 10851 10848 10848 10846 10848 10847 10847 10845 10843 10843 10844 10845 10844 10842 10840 10838 10838 10838 10840 10843 10845 10850 10853 10858 10862 10868 10874 10880 10886 10892 10898 10903 10907 10910 10915 10921 10926 10930 10933
10852 10849 10848 10848 10845 10844 10843 10840 10838 10838 10839 10840 10839 10838 10836 10835 10837 10838 10838 10838 10836 10834 10833 10833 10835 10838 10840 10842 10846 10850 10855 10860 10864 10870 10877 10884 10890 10896 10900 10904 10908 10913 10919 10924 10928
10843 10841 10838 10837 10837 10836 10835 10831 10828 10830 10830 10831 10831 10830 10829 10828 10829 10831 10833 10833 10832 10832 10830 10829 10830 10832 10834 10836 10839 10843 10847 10853 10857 10862 10869 10876 10883 10888 10892 10897 10902 10907 10912 10918 10923
10832 10830 10827 10826 10825 10825 10825 10821 10820 10822 10822 10821 10822 10821 10821 10820 10821 10824 10826 10827 10827 10827 10825 10825 10825 10826 10828 10831 10834 10837 10840 10846 10852 10857 10862 10867 10872 10879 10884 10889 10896 10899 10905 10911 10917
10815 10815 10814 10811 10812 10812 10811 10810 10810 10811 10813 10812 10813 10813 10812 10812 10813 10815 10817 10820 10821 10821 10820 10819 10821 10822 10823 10825 10828 10832 10835 10840 10845 10850 10855 10858 10864 10870 10875 10881 10887 10892 10897 10903 10910
10800 10799 10798 10796 10798 10797 10797 10797 10797 10800 10802 10803 10803 10804 10804 10804 10805 10807 10810 10811 10814 10815 10815 10815 10817 10817 10819 10821 10823 10827 10830 10834 10838 10842 10847 10850 10855 10860 10867 10872 10878 10884 10889 10895 10901
10784 10783 10782 10782 10782 10783 10783 10783 10784 10786 10789 10793 10792 10793 10795 10796 10797 10799 10802 10804 10806 10808 10809 10810 10812 10814 10815 10817 10820 10823 10826 10829 10832 10835 10839 10843 10846 10852 10858 10863 10867 10874 10880 10886 10893
10765 10766 10764 10766 10766 10767 10768 10768 10769 10771 10775 10779 10781 10782 10785 10786 10788 10790 10793 10796 10798 10800 10802 10804 10807 10809 10811 10814 10817 10819 10821 10823 10826 10829 10832 10836 10839 10844 10848 10853 10858 10864 10870 10876 10883
10746 10746 10746 10749 10749 10749 10750 10752 10753 10756 10758 10762 10767 10770 10773 10775 10778 10780 10783 10787 10791 10793 10795 10797 10800 10803 10806 10808 10811 10814 10816 10818 10821 10824 10826 10830 10832 10837 10840 10844 10848 10853 10859 10865 10872
10726 10726 10726 10728 10728 10729 10729 10731 10732 10737 10739 10743 10749 10756 10760 10763 10765 10769 10773 10777 10782 10785 10787 10790 10793 10796 10798 10800 10804 10807 10810 10812 10814 10817 10819 10822 10825 10830 10832 10836 10840 10845 10849 10855 10861
10705 10705 10706 10707 10706 10707 10709 10709 10710 10713 10720 10724 10732 10739 10744 10748 10754 10757 10761 10767 10771 10775 10778 10781 10785 10788 10790 10792 10796 10799 10803 10806 10809 10810 10812 10814 10820 10822 10826 10829 10832 10836 10839 10844 10849